EW8665 Weather Reports


time (UTC)temp
C
wind
direction
speed
KPH
gust
KPH
rain 1hr
cm
rain 24hr
cm
rain mn
cm
humidity
%
barometer
mb
20260508190004 17 80 3.2 6.4 0.00 0.00 0.00 69 1014.5
20260508185504 17 80 3.2 9.7 0.00 0.00 0.00 65 1014.5
20260508185005 17 83 4.8 9.7 0.00 0.00 0.00 65 1014.4
20260508184505 17 85 6.4 11.3 0.00 0.00 0.00 65 1014.3
20260508184005 17 88 4.8 11.3 0.00 0.00 0.00 64 1014.4
20260508183504 17 86 4.8 11.3 0.00 0.00 0.00 64 1014.4
20260508183005 17 83 4.8 11.3 0.00 0.00 0.00 64 1014.2
20260508182505 17 86 6.4 12.9 0.00 0.00 0.00 64 1014.0
20260508182004 18 83 6.4 12.9 0.00 0.00 0.00 64 1014.2
20260508181504 18 80 6.4 11.3 0.00 0.00 0.00 63 1014.0
20260508181004 18 79 4.8 12.9 0.00 0.00 0.00 63 1013.9
20260508180504 18 80 4.8 12.9 0.00 0.00 0.00 62 1013.7
20260508180005 18 75 6.4 12.9 0.00 0.00 0.00 61 1013.6
20260508175504 18 74 8.0 12.9 0.00 0.00 0.00 61 1013.5
20260508175004 18 73 8.0 12.9 0.00 0.00 0.00 60 1013.5
20260508174504 18 71 9.7 12.9 0.00 0.00 0.00 60 1013.4
20260508174004 18 64 8.0 14.5 0.00 0.00 0.00 58 1013.4
20260508173504 18 58 6.4 14.5 0.00 0.00 0.00 57 1013.4
20260508173005 18 61 6.4 16.1 0.00 0.00 0.00 57 1013.1
20260508172505 19 58 8.0 16.1 0.00 0.00 0.00 57 1013.1
20260508172004 19 56 8.0 19.3 0.00 0.00 0.00 56 1013.1
20260508171504 19 53 9.7 20.9 0.00 0.00 0.00 55 1013.0
20260508170505 19 79 6.4 19.3 0.00 0.00 0.00 52 1012.9
20260508170008 19 72 6.4 14.5 0.00 0.00 0.00 50 1012.8
20260508165504 20 67 6.4 14.5 0.00 0.00 0.00 48 1012.9
20260508165005 20 86 6.4 12.9 0.00 0.00 0.00 48 1012.9
20260508164504 20 94 6.4 12.9 0.00 0.00 0.00 48 1012.9
20260508164005 20 75 4.8 11.3 0.00 0.00 0.00 47 1012.8
20260508163504 20 73 4.8 9.7 0.00 0.00 0.00 47 1012.7
20260508162504 20 85 6.4 12.9 0.00 0.00 0.00 45 1012.7
20260508162004 20 76 4.8 12.9 0.00 0.00 0.00 45 1012.6
20260508161005 21 17 4.8 12.9 0.00 0.00 0.00 45 1012.6
20260508160004 21 23 4.8 12.9 0.00 0.00 0.00 45 1012.7
20260508155004 21 36 4.8 12.9 0.00 0.00 0.00 41 1012.8
20260508154005 21 48 6.4 14.5 0.00 0.00 0.00 44 1012.7
20260508153005 21 21 6.4 12.9 0.00 0.00 0.00 47 1012.8
20260508152506 20 8 4.8 12.9 0.00 0.00 0.00 48 1012.9
20260508152004 20 357 6.4 12.9 0.00 0.00 0.00 46 1012.7
20260508151004 20 6 6.4 12.9 0.00 0.00 0.00 47 1012.8
20260508150504 20 23 6.4 11.3 0.00 0.00 0.00 48 1012.9
20260508150005 19 38 6.4 11.3 0.00 0.00 0.00 50 1012.7
20260508145505 19 46 4.8 9.7 0.00 0.00 0.00 51 1013.0
20260508144505 20 68 9.7 12.9 0.00 0.00 0.00 48 1013.1
20260508144004 20 75 9.7 12.9 0.00 0.00 0.00 49 1013.2
20260508143007 20 76 6.4 14.5 0.00 0.00 0.00 49 1013.2
20260508142504 20 80 8.0 14.5 0.00 0.00 0.00 49 1013.3
20260508142007 20 73 6.4 17.7 0.00 0.00 0.00 50 1013.2
20260508140505 20 64 8.0 14.5 0.00 0.00 0.00 51 1013.3
20260508140004 20 63 8.0 19.3 0.00 0.00 0.00 51 1013.2
20260508135505 20 66 9.7 19.3 0.00 0.00 0.00 51 1013.5
20260508135005 19 66 8.0 14.5 0.00 0.00 0.00 53 1013.4
20260508134504 19 66 6.4 14.5 0.00 0.00 0.00 52 1013.4
20260508134004 19 70 9.7 25.7 0.00 0.00 0.00 55 1013.3
20260508133005 19 53 9.7 17.7 0.00 0.00 0.00 55 1013.6
20260508131004 18 31 9.7 14.5 0.00 0.00 0.00 59 1013.8
20260508130505 18 35 6.4 12.9 0.00 0.00 0.00 60 1013.8
20260508130004 18 39 6.4 16.1 0.00 0.00 0.00 63 1014.0
20260508125507 18 47 8.0 16.1 0.00 0.00 0.00 62 1014.1
20260508125004 18 50 8.0 12.9 0.00 0.00 0.00 64 1014.1
20260508124505 18 50 9.7 14.5 0.00 0.00 0.00 64 1014.0
20260508123504 18 70 9.7 17.7 0.00 0.00 0.00 63 1014.2
20260508122504 18 62 9.7 17.7 0.00 0.00 0.00 65 1014.2
20260508122004 18 62 9.7 19.3 0.00 0.00 0.00 64 1014.4
20260508121004 17 36 8.0 16.1 0.00 0.00 0.00 65 1014.5
20260508120504 17 29 8.0 12.9 0.00 0.00 0.00 66 1014.5
20260508120006 17 29 6.4 12.9 0.00 0.00 0.00 66 1014.5
20260508115504 17 40 8.0 16.1 0.00 0.00 0.00 69 1014.6
20260508115005 17 48 9.7 17.7 0.00 0.00 0.00 67 1014.5
20260508114505 17 62 9.7 17.7 0.00 0.00 0.00 67 1014.6
20260508114005 17 77 6.4 14.5 0.00 0.00 0.00 68 1014.5
20260508113005 17 73 8.0 17.7 0.00 0.00 0.00 69 1014.9
20260508112505 16 71 11.3 20.9 0.00 0.00 0.00 69 1014.7
20260508112004 16 68 11.3 20.9 0.00 0.00 0.00 69 1014.9
20260508111504 16 62 9.7 14.5 0.00 0.00 0.00 69 1014.9
20260508111005 16 62 8.0 14.5 0.00 0.00 0.00 70 1014.9
20260508110005 16 65 8.0 16.1 0.00 0.00 0.00 71 1015.1
20260508105504 16 68 9.7 17.7 0.00 0.00 0.00 71 1015.0
20260508105005 16 40 8.0 17.7 0.00 0.00 0.00 70 1015.1
20260508104504 16 236 8.0 14.5 0.00 0.00 0.00 71 1015.1
20260508104004 16 261 4.8 16.1 0.00 0.00 0.00 72 1015.3
20260508103504 15 256 4.8 16.1 0.00 0.00 0.00 72 1015.3
20260508103005 15 256 6.4 16.1 0.00 0.00 0.00 73 1015.3
20260508102504 15 259 6.4 12.9 0.00 0.00 0.00 72 1015.2
20260508102004 15 256 8.0 14.5 0.00 0.00 0.00 72 1015.3
20260508101505 15 262 8.0 14.5 0.00 0.00 0.00 73 1015.2
20260508101007 15 240 6.4 12.9 0.00 0.00 0.00 74 1015.2
20260508095505 15 214 4.8 12.9 0.00 0.00 0.00 73 1015.3
20260508094505 15 215 8.0 11.3 0.00 0.00 0.00 74 1015.2
20260508094004 15 224 6.4 12.9 0.00 0.00 0.00 75 1015.3
20260508093504 14 242 6.4 12.9 0.00 0.00 0.00 75 1015.4
20260508093005 14 251 6.4 12.9 0.00 0.00 0.00 75 1015.4
20260508092504 13 253 6.4 12.9 0.00 0.00 0.00 76 1015.2
20260508092004 13 254 8.0 12.9 0.00 0.00 0.00 76 1015.4
20260508091505 13 256 8.0 12.9 0.00 0.00 0.00 77 1015.5
20260508090504 13 248 8.0 14.5 0.00 0.00 0.00 77 1015.5
20260508090005 13 237 6.4 14.5 0.00 0.00 0.00 78 1015.3
20260508085504 13 224 6.4 12.9 0.00 0.00 0.00 77 1015.4
20260508085004 13 199 6.4 12.9 0.00 0.00 0.00 77 1015.2
20260508084504 13 175 4.8 11.3 0.00 0.00 0.00 77 1015.3
20260508084005 13 174 3.2 6.4 0.00 0.00 0.00 77 1015.4
20260508083505 12 181 3.2 6.4 0.00 0.00 0.00 77 1015.3
20260508083004 12 190 6.4 12.9 0.00 0.00 0.00 77 1015.3
20260508082504 13 203 6.4 12.9 0.00 0.00 0.00 78 1015.3
20260508082004 12 213 4.8 8.0 0.00 0.00 0.00 77 1015.3
20260508081504 12 225 4.8 8.0 0.00 0.00 0.00 78 1015.2
20260508081004 12 227 4.8 11.3 0.00 0.00 0.00 79 1015.3
20260508080504 12 229 6.4 12.9 0.00 0.00 0.00 80 1015.2
20260508080005 12 231 6.4 12.9 0.00 0.00 0.00 83 1015.1
20260508075505 12 231 6.4 12.9 0.00 0.00 0.00 84 1015.0
20260508075004 12 237 8.0 12.9 0.00 0.00 0.00 85 1015.0
20260508074505 12 244 6.4 12.9 0.00 0.00 0.00 85 1015.1
20260508073504 11 251 3.2 6.4 0.00 0.00 0.00 86 1015.1
20260508072505 11 257 4.8 8.0 0.00 0.00 0.00 87 1015.1
20260508072005 11 253 6.4 11.3 0.00 0.00 0.00 87 1015.2
20260508071504 11 252 6.4 11.3 0.00 0.00 0.00 87 1015.1
20260508071005 11 249 6.4 11.3 0.00 0.00 0.00 87 1015.2
20260508065504 11 244 3.2 9.7 0.00 0.00 0.00 88 1015.0
20260508064505 10 251 3.2 8.0 0.00 0.00 0.00 88 1015.0
20260508064004 10 252 3.2 6.4 0.00 0.00 0.00 89 1015.0
20260508063504 10 257 3.2 6.4 0.00 0.00 0.00 89 1014.8
20260508062504 10 248 3.2 4.8 0.00 0.00 0.00 90 1015.0
20260508062004 10 243 3.2 4.8 0.00 0.00 0.00 92 1015.1
20260508061504 9 267 3.2 4.8 0.00 0.00 0.00 93 1015.1
20260508061005 9 325 1.6 4.8 0.00 0.00 0.00 95 1014.9
20260508060504 9 25 0.0 3.2 0.00 0.00 0.00 95 1014.9
20260508060004 8 19 0.0 3.2 0.00 0.00 0.00 95 1014.7
20260508055504 8 10 1.6 3.2 0.00 0.00 0.00 96 1014.6
20260508055004 8 17 1.6 3.2 0.00 0.00 0.00 96 1014.7
20260508054504 8 29 1.6 3.2 0.00 0.00 0.00 96 1014.6
20260508054004 8 39 1.6 3.2 0.00 0.00 0.00 96 1014.8
20260508053504 7 53 1.6 3.2 0.00 0.00 0.00 96 1014.7
20260508052504 7 77 1.6 3.2 0.00 0.03 0.00 95 1014.8
20260508052007 7 81 1.6 3.2 0.00 0.03 0.00 98 1014.7
20260508051504 7 82 1.6 4.8 0.00 0.03 0.00 98 1014.7
20260508051005 7 82 1.6 4.8 0.00 0.03 0.00 98 1014.5
20260508050504 7 86 1.6 3.2 0.00 0.03 0.00 98 1014.6
20260508050004 7 84 1.6 3.2 0.00 0.03 0.00 98 1014.6
20260508045504 7 81 1.6 3.2 0.00 0.05 0.00 98 1014.6
20260508045004 6 77 1.6 3.2 0.00 0.05 0.00 98 1014.5
20260508044504 6 77 1.6 3.2 0.00 0.05 0.00 97 1014.5
20260508044004 7 80 3.2 4.8 0.00 0.05 0.00 97 1014.4
20260508043507 6 75 3.2 4.8 0.00 0.05 0.00 97 1014.5
20260508043005 6 81 1.6 4.8 0.00 0.05 0.00 97 1014.3
20260508041505 6 102 0.0 3.2 0.00 0.08 0.00 97 1014.6
20260508041004 6 97 0.0 3.2 0.00 0.08 0.00 97 1014.6
20260508040504 7 99 1.6 3.2 0.00 0.08 0.00 97 1014.4
20260508040004 7 94 1.6 3.2 0.00 0.08 0.00 97 1014.4
20260508035504 7 90 1.6 3.2 0.00 0.08 0.00 97 1014.4
20260508035004 6 87 1.6 4.8 0.00 0.08 0.00 97 1014.4
20260508034504 6 86 3.2 4.8 0.00 0.08 0.00 97 1014.3
20260508034005 7 90 3.2 4.8 0.00 0.08 0.00 97 1014.4
20260508033504 7 90 1.6 3.2 0.00 0.08 0.00 97 1014.4
20260508032504 7 90 1.6 4.8 0.00 0.10 0.00 97 1014.5
20260508032004 7 94 1.6 3.2 0.00 0.10 0.00 97 1014.4
20260508031504 7 101 1.6 3.2 0.00 0.10 0.00 97 1014.3
20260508031004 7 90 1.6 3.2 0.00 0.10 0.00 97 1014.2
20260508030504 7 83 1.6 3.2 0.00 0.13 0.00 97 1014.4
20260508030005 7 82 1.6 3.2 0.00 0.13 0.00 97 1014.5
20260508025504 7 87 1.6 3.2 0.00 0.13 0.00 97 1014.4
20260508025004 7 88 1.6 3.2 0.00 0.13 0.00 97 1014.3
20260508024505 7 86 1.6 3.2 0.00 0.13 0.00 97 1014.2
20260508024004 7 89 1.6 4.8 0.00 0.15 0.00 97 1014.3
20260508023504 7 91 3.2 6.4 0.00 0.15 0.00 97 1014.2
20260508023004 7 87 3.2 6.4 0.00 0.15 0.00 97 1014.4
20260508022504 7 83 3.2 4.8 0.00 0.15 0.00 97 1014.3
20260508022004 7 79 3.2 4.8 0.00 0.15 0.00 97 1014.2
20260508021504 7 77 1.6 3.2 0.00 0.18 0.00 97 1014.4
20260508021004 7 78 3.2 4.8 0.00 0.18 0.00 97 1014.4
20260508020504 7 77 3.2 4.8 0.00 0.18 0.00 97 1014.5
20260508020005 7 79 3.2 4.8 0.00 0.20 0.00 96 1014.4
20260508015505 7 83 3.2 4.8 0.00 0.20 0.00 96 1014.2
20260508015005 7 85 1.6 3.2 0.00 0.23 0.00 92 1014.6
20260508014504 7 87 1.6 3.2 0.00 0.23 0.00 92 1014.4
20260508014004 7 89 1.6 3.2 0.00 0.25 0.00 92 1014.5
20260508013504 7 91 1.6 3.2 0.00 0.25 0.00 92 1014.6
20260508013005 7 93 3.2 3.2 0.00 0.25 0.00 92 1014.3
20260508012004 7 90 1.6 3.2 0.00 0.28 0.00 92 1014.5
20260508011506 7 82 1.6 3.2 0.00 0.30 0.00 92 1014.4
20260508010504 7 70 1.6 3.2 0.00 0.30 0.00 92 1014.4
20260508010004 7 70 3.2 4.8 0.00 0.33 0.00 92 1014.5
20260508005504 7 70 3.2 4.8 0.00 0.33 0.00 92 1014.3
20260508004504 7 67 3.2 6.4 0.00 0.33 0.00 92 1014.7
20260508003504 7 74 3.2 6.4 0.00 0.36 0.00 91 1014.6
20260508003005 7 73 3.2 6.4 0.00 0.36 0.00 91 1014.7
20260508002507 7 74 3.2 6.4 0.00 0.38 0.00 91 1014.7
20260508002005 8 72 3.2 6.4 0.00 0.38 0.00 90 1014.8
20260508001504 8 64 3.2 4.8 0.00 0.38 0.00 90 1014.8
20260508001004 8 63 3.2 4.8 0.00 0.38 0.00 90 1014.7
20260508000504 8 49 1.6 3.2 0.00 0.38 0.00 91 1014.9
20260507235504 8 45 3.2 4.8 0.00 0.38 0.00 90 1014.8
20260507235004 8 46 3.2 4.8 0.00 0.38 0.00 89 1014.9
20260507234504 8 93 3.2 3.2 0.00 0.41 0.00 89 1014.9
20260507233504 8 130 0.0 3.2 0.00 0.41 0.00 88 1015.0
20260507233005 8 151 0.0 3.2 0.00 0.41 0.00 88 1015.0
20260507232504 8 158 1.6 3.2 0.00 0.43 0.00 88 1015.1
20260507232007 9 158 1.6 3.2 0.00 0.43 0.00 88 1015.1
20260507231504 9 105 0.0 3.2 0.00 0.43 0.00 88 1015.3
20260507230004 9 44 1.6 3.2 0.00 0.46 0.00 88 1015.2
20260507225504 9 45 1.6 6.4 0.00 0.48 0.00 88 1015.2
20260507225004 9 44 3.2 6.4 0.00 0.48 0.00 88 1015.1
20260507224504 9 41 3.2 6.4 0.00 0.48 0.00 88 1015.1
20260507223004 9 57 4.8 8.0 0.00 0.51 0.00 88 1015.2
20260507222504 9 49 4.8 6.4 0.00 0.53 0.00 88 1015.3
20260507222004 9 49 3.2 6.4 0.00 0.53 0.00 88 1015.4
20260507221504 9 51 3.2 8.0 0.00 0.56 0.00 88 1015.1
20260507220004 9 25 3.2 6.4 0.00 0.58 0.00 89 1015.0
20260507215504 9 32 4.8 6.4 0.00 0.58 0.58 89 1015.1
20260507215004 9 28 4.8 8.0 0.00 0.58 0.58 89 1015.0
20260507214504 9 30 4.8 8.0 0.00 0.58 0.58 89 1015.1
20260507214004 9 30 4.8 8.0 0.00 0.58 0.58 89 1014.9
20260507213504 9 34 4.8 9.7 0.00 0.58 0.58 89 1015.0
20260507212504 9 35 4.8 9.7 0.00 0.58 0.58 89 1015.0
20260507212004 9 36 4.8 9.7 0.00 0.58 0.58 89 1015.1
20260507211504 9 34 6.4 9.7 0.00 0.58 0.58 88 1015.0
20260507211004 9 36 6.4 9.7 0.00 0.58 0.58 88 1015.1
20260507210504 9 30 4.8 9.7 0.00 0.58 0.58 88 1015.0
20260507210005 9 31 6.4 12.9 0.00 0.58 0.58 88 1015.1
20260507205504 9 34 6.4 12.9 0.00 0.58 0.58 89 1015.2
20260507205004 10 34 6.4 12.9 0.00 0.58 0.58 89 1015.1
20260507204507 10 34 4.8 9.7 0.00 0.58 0.58 89 1015.0
20260507203004 10 50 4.8 8.0 0.00 0.61 0.58 88 1015.0
20260507202504 10 54 4.8 8.0 0.00 0.61 0.58 88 1014.9
20260507202005 10 59 4.8 8.0 0.00 0.61 0.58 87 1014.9
20260507201504 10 65 4.8 8.0 0.00 0.61 0.58 87 1014.8
20260507200504 10 63 3.2 8.0 0.00 0.66 0.58 87 1014.9
20260507200004 10 64 3.2 6.4 0.00 0.66 0.58 87 1014.7
20260507195504 10 64 4.8 6.4 0.00 0.66 0.58 87 1014.8
20260507195004 10 64 4.8 6.4 0.00 0.69 0.58 87 1014.7
20260507194504 11 70 4.8 9.7 0.00 0.71 0.58 86 1014.7
20260507194003 11 70 4.8 9.7 0.00 0.71 0.58 86 1014.6
20260507193504 11 78 4.8 8.0 0.00 0.71 0.58 86 1014.7
20260507192504 11 89 4.8 9.7 0.00 0.74 0.58 85 1014.4
20260507191504 11 83 6.4 9.7 0.00 0.76 0.58 83 1014.4
20260507191007 12 74 6.4 9.7 0.00 0.76 0.58 82 1014.3
20260507190504 12 44 4.8 9.7 0.00 0.76 0.58 81 1014.3